Location: Navajo
(48.7922°N, 105.0603°W)
Time: 04:59:04
(UTC+00:00)

BEESAT 2 - Visible Passes

Search period start: 26 June 2022 00:00
Search period end: 06 July 2022 00:00
Orbit: 485 x 508 km, 64.9° (Epoch: 25 June)

Date Brightness Start Highest point End Pass type
(mag) Time Alt. Az. Time Alt. Az. Time Alt. Az.
26 Jun ? 04:40:11 10° WNW 04:43:24 25° WSW 04:46:24 11° S visible
27 Jun ? 04:18:15 10° WNW 04:21:35 28° WSW 04:24:55 10° S visible
28 Jun ? 03:56:20 10° NW 03:59:47 31° WSW 04:03:12 10° S visible
